Year,Month,Day,Hour,Minute,Value (Times are PST for temperature in C)
2012,10,05,00,00,7.50
2012,10,05,00,01,7.60
2012,10,05,00,02,7.60
2012,10,05,00,03,7.60
2012,10,05,00,04,7.70
2012,10,05,00,05,7.70
2012,10,05,00,06,7.70
2012,10,05,00,07,7.70
2012,10,05,00,08,7.70
2012,10,05,00,09,7.80
2012,10,05,00,10,7.80
2012,10,05,00,11,7.90
2012,10,05,00,12,7.90
2012,10,05,00,13,8.00
2012,10,05,00,14,8.00
2012,10,05,00,15,8.00
2012,10,05,00,16,8.00
2012,10,05,00,17,8.10
2012,10,05,00,18,8.10
2012,10,05,00,19,8.10
2012,10,05,00,20,8.10
2012,10,05,00,21,8.10
2012,10,05,00,22,8.10
2012,10,05,00,23,8.00
2012,10,05,00,24,8.00
2012,10,05,00,25,7.90
2012,10,05,00,26,7.90
2012,10,05,00,27,7.80
2012,10,05,00,28,7.80
2012,10,05,00,29,7.80
2012,10,05,00,30,7.80
2012,10,05,00,31,7.80
2012,10,05,00,32,7.80
2012,10,05,00,33,7.90
2012,10,05,00,34,7.90
2012,10,05,00,35,7.90
2012,10,05,00,36,8.00
2012,10,05,00,37,8.00
2012,10,05,00,38,8.10
2012,10,05,00,39,8.10
2012,10,05,00,40,8.10
2012,10,05,00,41,8.00
2012,10,05,00,42,8.00
2012,10,05,00,43,7.90
2012,10,05,00,44,7.90
2012,10,05,00,45,7.80
2012,10,05,00,46,7.80
2012,10,05,00,47,7.70
2012,10,05,00,48,7.70
2012,10,05,00,49,7.70
2012,10,05,00,50,7.60
2012,10,05,00,51,7.60
2012,10,05,00,52,7.50
2012,10,05,00,53,7.50
2012,10,05,00,54,7.40
2012,10,05,00,55,7.40
2012,10,05,00,56,7.30
2012,10,05,00,57,7.30
2012,10,05,00,58,7.30
2012,10,05,00,59,7.30
2012,10,05,01,00,7.30
2012,10,05,01,01,7.30
2012,10,05,01,02,7.20
2012,10,05,01,03,7.20
2012,10,05,01,04,7.20
2012,10,05,01,05,7.20
2012,10,05,01,06,7.20
2012,10,05,01,07,7.20
2012,10,05,01,08,7.20
2012,10,05,01,09,7.20
2012,10,05,01,10,7.20
2012,10,05,01,11,7.20
2012,10,05,01,12,7.10
2012,10,05,01,13,7.10
2012,10,05,01,14,7.00
2012,10,05,01,15,6.90
2012,10,05,01,16,6.90
2012,10,05,01,17,6.80
2012,10,05,01,18,6.80
2012,10,05,01,19,6.90
2012,10,05,01,20,6.90
2012,10,05,01,21,6.90
2012,10,05,01,22,7.00
2012,10,05,01,23,7.00
2012,10,05,01,24,7.10
2012,10,05,01,25,7.20
2012,10,05,01,26,7.20
2012,10,05,01,27,7.20
2012,10,05,01,28,7.20
2012,10,05,01,29,7.20
2012,10,05,01,30,7.30
2012,10,05,01,31,7.40
2012,10,05,01,32,7.50
2012,10,05,01,33,7.50
2012,10,05,01,34,7.60
2012,10,05,01,35,7.70
2012,10,05,01,36,7.80
2012,10,05,01,37,7.90
2012,10,05,01,38,8.00
2012,10,05,01,39,8.20
2012,10,05,01,40,8.40
2012,10,05,01,41,8.50
2012,10,05,01,42,8.70
2012,10,05,01,43,8.70
2012,10,05,01,44,8.80
2012,10,05,01,45,8.90
2012,10,05,01,46,8.90
2012,10,05,01,47,8.90
2012,10,05,01,48,8.90
2012,10,05,01,49,8.90
2012,10,05,01,50,8.90
2012,10,05,01,51,8.90
2012,10,05,01,52,8.90
2012,10,05,01,53,8.90
2012,10,05,01,54,8.90
2012,10,05,01,55,8.90
2012,10,05,01,56,8.90
2012,10,05,01,57,8.90
2012,10,05,01,58,8.90
2012,10,05,01,59,8.90
2012,10,05,02,00,8.80
2012,10,05,02,01,8.60
2012,10,05,02,02,8.40
2012,10,05,02,03,8.20
2012,10,05,02,04,8.00
2012,10,05,02,05,7.90
2012,10,05,02,06,7.80
2012,10,05,02,07,7.70
2012,10,05,02,08,7.70
2012,10,05,02,09,7.60
2012,10,05,02,10,7.50
2012,10,05,02,11,7.40
2012,10,05,02,12,7.30
2012,10,05,02,13,7.20
2012,10,05,02,14,7.20
2012,10,05,02,15,7.10
2012,10,05,02,16,7.00
2012,10,05,02,17,7.00
2012,10,05,02,18,6.90
2012,10,05,02,19,6.90
2012,10,05,02,20,6.90
2012,10,05,02,21,6.80
2012,10,05,02,22,6.80
2012,10,05,02,23,6.80
2012,10,05,02,24,6.80
2012,10,05,02,25,6.80
2012,10,05,02,26,6.80
2012,10,05,02,27,6.90
2012,10,05,02,28,6.90
2012,10,05,02,29,6.90
2012,10,05,02,30,7.00
2012,10,05,02,31,7.10
2012,10,05,02,32,7.20
2012,10,05,02,33,7.20
2012,10,05,02,34,7.20
2012,10,05,02,35,7.20
2012,10,05,02,36,7.30
2012,10,05,02,37,7.20
2012,10,05,02,38,7.20
2012,10,05,02,39,7.20
2012,10,05,02,40,7.20
2012,10,05,02,41,7.20
2012,10,05,02,42,7.10
2012,10,05,02,43,7.10
2012,10,05,02,44,7.00
2012,10,05,02,45,7.00
2012,10,05,02,46,7.00
2012,10,05,02,47,7.00
2012,10,05,02,48,7.10
2012,10,05,02,49,7.20
2012,10,05,02,50,7.30
2012,10,05,02,51,7.40
2012,10,05,02,52,7.50
2012,10,05,02,53,7.60
2012,10,05,02,54,7.60
2012,10,05,02,55,7.70
2012,10,05,02,56,7.70
2012,10,05,02,57,7.60
2012,10,05,02,58,7.60
2012,10,05,02,59,7.50
2012,10,05,03,00,7.30
2012,10,05,03,01,7.20
2012,10,05,03,02,7.10
2012,10,05,03,03,7.00
2012,10,05,03,04,7.00
2012,10,05,03,05,6.90
2012,10,05,03,06,6.90
2012,10,05,03,07,6.80
2012,10,05,03,08,6.80
2012,10,05,03,09,6.80
2012,10,05,03,10,6.80
2012,10,05,03,11,6.80
2012,10,05,03,12,6.80
2012,10,05,03,13,6.70
2012,10,05,03,14,6.70
2012,10,05,03,15,6.70
2012,10,05,03,16,6.70
2012,10,05,03,17,6.70
2012,10,05,03,18,6.60
2012,10,05,03,19,6.60
2012,10,05,03,20,6.60
2012,10,05,03,21,6.60
2012,10,05,03,22,6.60
2012,10,05,03,23,6.60
2012,10,05,03,24,6.70
2012,10,05,03,25,6.70
2012,10,05,03,26,6.70
2012,10,05,03,27,6.70
2012,10,05,03,28,6.70
2012,10,05,03,29,6.80
2012,10,05,03,30,6.80
2012,10,05,03,31,6.80
2012,10,05,03,32,6.70
2012,10,05,03,33,6.70
2012,10,05,03,34,6.70
2012,10,05,03,35,6.70
2012,10,05,03,36,6.70
2012,10,05,03,37,6.60
2012,10,05,03,38,6.60
2012,10,05,03,39,6.60
2012,10,05,03,40,6.60
2012,10,05,03,41,6.60
2012,10,05,03,42,6.60
2012,10,05,03,43,6.70
2012,10,05,03,44,6.80
2012,10,05,03,45,6.80
2012,10,05,03,46,7.00
2012,10,05,03,47,7.10
2012,10,05,03,48,7.20
2012,10,05,03,49,7.30
2012,10,05,03,50,7.40
2012,10,05,03,51,7.60
2012,10,05,03,52,7.80
2012,10,05,03,53,8.00
2012,10,05,03,54,8.10
2012,10,05,03,55,8.20
2012,10,05,03,56,8.30
2012,10,05,03,57,8.40
2012,10,05,03,58,8.40
2012,10,05,03,59,8.50
2012,10,05,04,00,8.60
2012,10,05,04,01,8.60
2012,10,05,04,02,8.70
2012,10,05,04,03,8.80
2012,10,05,04,04,8.90
2012,10,05,04,05,9.10
2012,10,05,04,06,9.30
2012,10,05,04,07,9.50
2012,10,05,04,08,9.60
2012,10,05,04,09,9.70
2012,10,05,04,10,9.70
2012,10,05,04,11,9.60
2012,10,05,04,12,9.40
2012,10,05,04,13,9.30
2012,10,05,04,14,9.00
2012,10,05,04,15,8.70
2012,10,05,04,16,8.50
2012,10,05,04,17,8.30
2012,10,05,04,18,8.10
2012,10,05,04,19,8.00
2012,10,05,04,20,7.80
2012,10,05,04,21,7.70
2012,10,05,04,22,7.50
2012,10,05,04,23,7.40
2012,10,05,04,24,7.20
2012,10,05,04,25,7.00
2012,10,05,04,26,6.90
2012,10,05,04,27,6.70
2012,10,05,04,28,6.70
2012,10,05,04,29,6.70
2012,10,05,04,30,6.60
2012,10,05,04,31,6.60
2012,10,05,04,32,6.60
2012,10,05,04,33,6.60
2012,10,05,04,34,6.60
2012,10,05,04,35,6.70
2012,10,05,04,36,6.70
2012,10,05,04,37,6.60
2012,10,05,04,38,6.50
2012,10,05,04,39,6.50
2012,10,05,04,40,6.40
2012,10,05,04,41,6.40
2012,10,05,04,42,6.30
2012,10,05,04,43,6.30
2012,10,05,04,44,6.40
2012,10,05,04,45,6.40
2012,10,05,04,46,6.40
2012,10,05,04,47,6.40
2012,10,05,04,48,6.40
2012,10,05,04,49,6.40
2012,10,05,04,50,6.40
2012,10,05,04,51,6.40
2012,10,05,04,52,6.40
2012,10,05,04,53,6.40
2012,10,05,04,54,6.40
2012,10,05,04,55,6.40
2012,10,05,04,56,6.30
2012,10,05,04,57,6.30
2012,10,05,04,58,6.20
2012,10,05,04,59,6.20
2012,10,05,05,00,6.10
2012,10,05,05,01,6.10
2012,10,05,05,02,6.10
2012,10,05,05,03,6.10
2012,10,05,05,04,6.00
2012,10,05,05,05,6.00
2012,10,05,05,06,6.10
2012,10,05,05,07,6.10
2012,10,05,05,08,6.20
2012,10,05,05,09,6.20
2012,10,05,05,10,6.20
2012,10,05,05,11,6.20
2012,10,05,05,12,6.20
2012,10,05,05,13,6.10
2012,10,05,05,14,6.10
2012,10,05,05,15,6.00
2012,10,05,05,16,6.00
2012,10,05,05,17,5.90
2012,10,05,05,18,5.90
2012,10,05,05,19,5.80
2012,10,05,05,20,5.80
2012,10,05,05,21,5.80
2012,10,05,05,22,5.80
2012,10,05,05,23,5.90
2012,10,05,05,24,5.90
2012,10,05,05,25,5.80
2012,10,05,05,26,5.80
2012,10,05,05,27,5.80
2012,10,05,05,28,5.90
2012,10,05,05,29,5.90
2012,10,05,05,30,5.90
2012,10,05,05,31,6.00
2012,10,05,05,32,6.00
2012,10,05,05,33,6.00
2012,10,05,05,34,6.10
2012,10,05,05,35,6.20
2012,10,05,05,36,6.30
2012,10,05,05,37,6.30
2012,10,05,05,38,6.50
2012,10,05,05,39,6.50
2012,10,05,05,40,6.50
2012,10,05,05,41,6.50
2012,10,05,05,42,6.50
2012,10,05,05,43,6.50
2012,10,05,05,44,6.50
2012,10,05,05,45,6.40
2012,10,05,05,46,6.40
2012,10,05,05,47,6.40
2012,10,05,05,48,6.40
2012,10,05,05,49,6.40
2012,10,05,05,50,6.50
2012,10,05,05,51,6.50
2012,10,05,05,52,6.60
2012,10,05,05,53,6.60
2012,10,05,05,54,6.60
2012,10,05,05,55,6.70
2012,10,05,05,56,6.70
2012,10,05,05,57,6.70
2012,10,05,05,58,6.70
2012,10,05,05,59,6.70
2012,10,05,06,00,6.70
2012,10,05,06,01,6.70
2012,10,05,06,02,6.70
2012,10,05,06,03,6.70
2012,10,05,06,04,6.80
2012,10,05,06,05,6.80
2012,10,05,06,06,6.80
2012,10,05,06,07,6.80
2012,10,05,06,08,6.80
2012,10,05,06,09,6.80
2012,10,05,06,10,6.70
2012,10,05,06,11,6.70
2012,10,05,06,12,6.80
2012,10,05,06,13,6.80
2012,10,05,06,14,6.80
2012,10,05,06,15,6.80
2012,10,05,06,16,6.90
2012,10,05,06,17,7.00
2012,10,05,06,18,7.20
2012,10,05,06,19,7.30
2012,10,05,06,20,7.50
2012,10,05,06,21,7.70
2012,10,05,06,22,7.70
2012,10,05,06,23,7.70
2012,10,05,06,24,7.70
2012,10,05,06,25,7.60
2012,10,05,06,26,7.60
2012,10,05,06,27,7.50
2012,10,05,06,28,7.50
2012,10,05,06,29,7.50
2012,10,05,06,30,7.60
2012,10,05,06,31,7.70
2012,10,05,06,32,7.80
2012,10,05,06,33,7.80
2012,10,05,06,34,7.90
2012,10,05,06,35,8.00
2012,10,05,06,36,8.10
2012,10,05,06,37,8.00
2012,10,05,06,38,8.00
2012,10,05,06,39,7.90
2012,10,05,06,40,7.80
2012,10,05,06,41,7.70
2012,10,05,06,42,7.70
2012,10,05,06,43,7.60
2012,10,05,06,44,7.50
2012,10,05,06,45,7.50
2012,10,05,06,46,7.40
2012,10,05,06,47,7.40
2012,10,05,06,48,7.40
2012,10,05,06,49,7.30
2012,10,05,06,50,7.30
2012,10,05,06,51,7.20
2012,10,05,06,52,7.20
2012,10,05,06,53,7.20
2012,10,05,06,54,7.20
2012,10,05,06,55,7.10
2012,10,05,06,56,7.00
2012,10,05,06,57,7.00
2012,10,05,06,58,6.90
2012,10,05,06,59,6.80
2012,10,05,07,00,6.70
2012,10,05,07,01,6.70
2012,10,05,07,02,6.60
2012,10,05,07,03,6.50
2012,10,05,07,04,6.50
2012,10,05,07,05,6.40
2012,10,05,07,06,6.30
2012,10,05,07,07,6.20
2012,10,05,07,08,6.20
2012,10,05,07,09,6.10
2012,10,05,07,10,6.10
2012,10,05,07,11,6.10
2012,10,05,07,12,6.10
2012,10,05,07,13,6.10
2012,10,05,07,14,6.10
2012,10,05,07,15,6.10
2012,10,05,07,16,6.10
2012,10,05,07,17,6.10
2012,10,05,07,18,6.10
2012,10,05,07,19,6.10
2012,10,05,07,20,6.10
2012,10,05,07,21,6.00
2012,10,05,07,22,6.00
2012,10,05,07,23,5.90
2012,10,05,07,24,5.80
2012,10,05,07,25,5.80
2012,10,05,07,26,5.70
2012,10,05,07,27,5.70
2012,10,05,07,28,5.70
2012,10,05,07,29,5.70
2012,10,05,07,30,5.70
2012,10,05,07,31,5.80
2012,10,05,07,32,5.80
2012,10,05,07,33,5.90
2012,10,05,07,34,5.90
2012,10,05,07,35,6.00
2012,10,05,07,36,6.00
2012,10,05,07,37,6.00
2012,10,05,07,38,6.00
2012,10,05,07,39,6.00
2012,10,05,07,40,6.00
2012,10,05,07,41,6.00
2012,10,05,07,42,6.00
2012,10,05,07,43,5.90
2012,10,05,07,44,6.00
2012,10,05,07,45,6.00
2012,10,05,07,46,6.00
2012,10,05,07,47,6.00
2012,10,05,07,48,6.00
2012,10,05,07,49,6.10
2012,10,05,07,50,6.10
2012,10,05,07,51,6.10
2012,10,05,07,52,6.10
2012,10,05,07,53,6.10
2012,10,05,07,54,6.10
2012,10,05,07,55,6.20
2012,10,05,07,56,6.20
2012,10,05,07,57,6.20
2012,10,05,07,58,6.20
2012,10,05,07,59,6.20
2012,10,05,08,00,6.20
2012,10,05,08,01,6.20
2012,10,05,08,02,6.20
2012,10,05,08,03,6.30
2012,10,05,08,04,6.30
2012,10,05,08,05,6.30
2012,10,05,08,06,6.40
2012,10,05,08,07,6.50
2012,10,05,08,08,6.50
2012,10,05,08,09,6.60
2012,10,05,08,10,6.60
2012,10,05,08,11,6.70
2012,10,05,08,12,6.70
2012,10,05,08,13,6.80
2012,10,05,08,14,6.80
2012,10,05,08,15,6.90
2012,10,05,08,16,7.00
2012,10,05,08,17,7.10
2012,10,05,08,18,7.10
2012,10,05,08,19,7.20
2012,10,05,08,20,7.20
2012,10,05,08,21,7.20
2012,10,05,08,22,7.20
2012,10,05,08,23,7.20
2012,10,05,08,24,7.20
2012,10,05,08,25,7.20
2012,10,05,08,26,7.20
2012,10,05,08,27,7.20
2012,10,05,08,28,7.20
2012,10,05,08,29,7.20
2012,10,05,08,30,7.30
2012,10,05,08,31,7.30
2012,10,05,08,32,7.40
2012,10,05,08,33,7.50
2012,10,05,08,34,7.50
2012,10,05,08,35,7.60
2012,10,05,08,36,7.70
2012,10,05,08,37,7.70
2012,10,05,08,38,7.80
2012,10,05,08,39,7.90
2012,10,05,08,40,8.00
2012,10,05,08,41,8.00
2012,10,05,08,42,8.10
2012,10,05,08,43,8.10
2012,10,05,08,44,8.20
2012,10,05,08,45,8.20
2012,10,05,08,46,8.30
2012,10,05,08,47,8.40
2012,10,05,08,48,8.50
2012,10,05,08,49,8.60
2012,10,05,08,50,8.60
2012,10,05,08,51,8.70
2012,10,05,08,52,8.80
2012,10,05,08,53,8.90
2012,10,05,08,54,9.10
2012,10,05,08,55,9.30
2012,10,05,08,56,9.50
2012,10,05,08,57,9.60
2012,10,05,08,58,9.80
2012,10,05,08,59,10.10
2012,10,05,09,00,10.30
2012,10,05,09,01,10.50
2012,10,05,09,02,10.70
2012,10,05,09,03,10.80
2012,10,05,09,04,11.00
2012,10,05,09,05,11.20
2012,10,05,09,06,11.40
2012,10,05,09,07,11.50
2012,10,05,09,08,11.70
2012,10,05,09,09,11.80
2012,10,05,09,10,11.90
2012,10,05,09,11,12.00
2012,10,05,09,12,12.10
2012,10,05,09,13,12.20
2012,10,05,09,14,12.20
2012,10,05,09,15,12.30
2012,10,05,09,16,12.40
2012,10,05,09,17,12.40
2012,10,05,09,18,12.50
2012,10,05,09,19,12.50
2012,10,05,09,20,12.50
2012,10,05,09,21,12.60
2012,10,05,09,22,12.60
2012,10,05,09,23,12.70
2012,10,05,09,24,12.70
2012,10,05,09,25,12.70
2012,10,05,09,26,12.80
2012,10,05,09,27,12.80
2012,10,05,09,28,12.80
2012,10,05,09,29,12.90
2012,10,05,09,30,12.90
2012,10,05,09,31,12.90
2012,10,05,09,32,12.90
2012,10,05,09,33,13.00
2012,10,05,09,34,13.00
2012,10,05,09,35,13.00
2012,10,05,09,36,13.10
2012,10,05,09,37,13.10
2012,10,05,09,38,13.10
2012,10,05,09,39,13.10
2012,10,05,09,40,13.10
2012,10,05,09,41,13.10
2012,10,05,09,42,13.00
2012,10,05,09,43,13.00
2012,10,05,09,44,12.90
2012,10,05,09,45,12.90
2012,10,05,09,46,12.90
2012,10,05,09,47,12.90
2012,10,05,09,48,12.90
2012,10,05,09,49,13.00
2012,10,05,09,50,13.00
2012,10,05,09,51,13.10
2012,10,05,09,52,13.10
2012,10,05,09,53,13.20
2012,10,05,09,54,13.20
2012,10,05,09,55,13.30
2012,10,05,09,56,13.30
2012,10,05,09,57,13.30
2012,10,05,09,58,13.30
2012,10,05,09,59,13.40
2012,10,05,10,00,13.40
2012,10,05,10,01,13.50
2012,10,05,10,02,13.50
2012,10,05,10,03,13.60
2012,10,05,10,04,13.60
2012,10,05,10,05,13.70
2012,10,05,10,06,13.70
2012,10,05,10,07,13.80
2012,10,05,10,08,13.80
2012,10,05,10,09,13.80
2012,10,05,10,10,13.80
2012,10,05,10,11,13.90
2012,10,05,10,12,13.90
2012,10,05,10,13,13.90
2012,10,05,10,14,14.00
2012,10,05,10,15,14.00
2012,10,05,10,16,14.10
2012,10,05,10,17,14.10
2012,10,05,10,18,14.10
2012,10,05,10,19,14.20
2012,10,05,10,20,14.20
2012,10,05,10,21,14.30
2012,10,05,10,22,14.30
2012,10,05,10,23,14.40
2012,10,05,10,24,14.40
2012,10,05,10,25,14.40
2012,10,05,10,26,14.50
2012,10,05,10,27,14.50
2012,10,05,10,28,14.60
2012,10,05,10,29,14.60
2012,10,05,10,30,14.70
2012,10,05,10,31,14.80
2012,10,05,10,32,14.90
2012,10,05,10,33,15.00
2012,10,05,10,34,15.00
2012,10,05,10,35,15.00
2012,10,05,10,36,15.00
2012,10,05,10,37,15.10
2012,10,05,10,38,15.10
2012,10,05,10,39,15.10
2012,10,05,10,40,15.20
2012,10,05,10,41,15.20
2012,10,05,10,42,15.20
2012,10,05,10,43,15.20
2012,10,05,10,44,15.30
2012,10,05,10,45,15.40
2012,10,05,10,46,15.50
2012,10,05,10,47,15.60
2012,10,05,10,48,15.70
2012,10,05,10,49,15.80
2012,10,05,10,50,15.90
2012,10,05,10,51,15.90
2012,10,05,10,52,16.00
2012,10,05,10,53,16.20
2012,10,05,10,54,16.30
2012,10,05,10,55,16.40
2012,10,05,10,56,16.50
2012,10,05,10,57,16.60
2012,10,05,10,58,16.70
2012,10,05,10,59,16.70
2012,10,05,11,00,16.80
2012,10,05,11,01,16.90
2012,10,05,11,02,16.90
2012,10,05,11,03,16.80
2012,10,05,11,04,16.70
2012,10,05,11,05,16.70
2012,10,05,11,06,16.70
2012,10,05,11,07,16.70
2012,10,05,11,08,16.80
2012,10,05,11,09,16.80
2012,10,05,11,10,16.90
2012,10,05,11,11,16.90
2012,10,05,11,12,16.90
2012,10,05,11,13,17.00
2012,10,05,11,14,17.00
2012,10,05,11,15,17.10
2012,10,05,11,16,17.20
2012,10,05,11,17,17.20
2012,10,05,11,18,17.20
2012,10,05,11,19,17.30
2012,10,05,11,20,17.30
2012,10,05,11,21,17.20
2012,10,05,11,22,17.20
2012,10,05,11,23,17.00
2012,10,05,11,24,16.90
2012,10,05,11,25,16.80
2012,10,05,11,26,16.80
2012,10,05,11,27,16.70
2012,10,05,11,28,16.70
2012,10,05,11,29,16.70
2012,10,05,11,30,16.70
2012,10,05,11,31,16.70
2012,10,05,11,32,16.60
2012,10,05,11,33,16.60
2012,10,05,11,34,16.70
2012,10,05,11,35,16.70
2012,10,05,11,36,16.80
2012,10,05,11,37,16.90
2012,10,05,11,38,17.00
2012,10,05,11,39,17.10
2012,10,05,11,40,17.20
2012,10,05,11,41,17.20
2012,10,05,11,42,17.20
2012,10,05,11,43,17.20
2012,10,05,11,44,17.30
2012,10,05,11,45,17.30
2012,10,05,11,46,17.30
2012,10,05,11,47,17.30
2012,10,05,11,48,17.40
2012,10,05,11,49,17.50
2012,10,05,11,50,17.60
2012,10,05,11,51,17.60
2012,10,05,11,52,17.70
2012,10,05,11,53,17.70
2012,10,05,11,54,17.80
2012,10,05,11,55,17.80
2012,10,05,11,56,17.70
2012,10,05,11,57,17.60
2012,10,05,11,58,17.60
2012,10,05,11,59,17.60
2012,10,05,12,00,17.60
2012,10,05,12,01,17.60
2012,10,05,12,02,17.60
2012,10,05,12,03,17.60
2012,10,05,12,04,17.60
2012,10,05,12,05,17.70
2012,10,05,12,06,17.60
2012,10,05,12,07,17.60
2012,10,05,12,08,17.60
2012,10,05,12,09,17.50
2012,10,05,12,10,17.50
2012,10,05,12,11,17.50
2012,10,05,12,12,17.60
2012,10,05,12,13,17.50
2012,10,05,12,14,17.50
2012,10,05,12,15,17.50
2012,10,05,12,16,17.50
2012,10,05,12,17,17.40
2012,10,05,12,18,17.40
2012,10,05,12,19,17.40
2012,10,05,12,20,17.50
2012,10,05,12,21,17.50
2012,10,05,12,22,17.60
2012,10,05,12,23,17.60
2012,10,05,12,24,17.60
2012,10,05,12,25,17.70
2012,10,05,12,26,17.70
2012,10,05,12,27,17.70
2012,10,05,12,28,17.70
2012,10,05,12,29,17.70
2012,10,05,12,30,17.70
2012,10,05,12,31,17.70
2012,10,05,12,32,17.70
2012,10,05,12,33,17.70
2012,10,05,12,34,17.70
2012,10,05,12,35,17.70
2012,10,05,12,36,17.70
2012,10,05,12,37,17.80
2012,10,05,12,38,17.90
2012,10,05,12,39,17.90
2012,10,05,12,40,17.90
2012,10,05,12,41,17.90
2012,10,05,12,42,17.90
2012,10,05,12,43,17.90
2012,10,05,12,44,17.90
2012,10,05,12,45,17.90
2012,10,05,12,46,18.00
2012,10,05,12,47,18.00
2012,10,05,12,48,18.10
2012,10,05,12,49,18.10
2012,10,05,12,50,18.10
2012,10,05,12,51,18.00
2012,10,05,12,52,18.00
2012,10,05,12,53,17.90
2012,10,05,12,54,18.00
2012,10,05,12,55,18.00
2012,10,05,12,56,18.10
2012,10,05,12,57,18.10
2012,10,05,12,58,18.10
2012,10,05,12,59,18.10
2012,10,05,13,00,18.10
2012,10,05,13,01,18.10
2012,10,05,13,02,18.20
2012,10,05,13,03,18.20
2012,10,05,13,04,18.20
2012,10,05,13,05,18.20
2012,10,05,13,06,18.20
2012,10,05,13,07,18.30
2012,10,05,13,08,18.30
2012,10,05,13,09,18.30
2012,10,05,13,10,18.30
2012,10,05,13,11,18.20
2012,10,05,13,12,18.20
2012,10,05,13,13,18.10
2012,10,05,13,14,18.10
2012,10,05,13,15,18.10
2012,10,05,13,16,18.10
2012,10,05,13,17,18.00
2012,10,05,13,18,18.10
2012,10,05,13,19,18.10
2012,10,05,13,20,18.10
2012,10,05,13,21,18.10
2012,10,05,13,22,18.10
2012,10,05,13,23,18.10
2012,10,05,13,24,18.10
2012,10,05,13,25,18.20
2012,10,05,13,26,18.10
2012,10,05,13,27,18.10
2012,10,05,13,28,18.00
2012,10,05,13,29,18.00
2012,10,05,13,30,17.90
2012,10,05,13,31,17.90
2012,10,05,13,32,17.90
2012,10,05,13,33,17.90
2012,10,05,13,34,17.90
2012,10,05,13,35,17.90
2012,10,05,13,36,17.90
2012,10,05,13,37,17.90
2012,10,05,13,38,17.90
2012,10,05,13,39,17.90
2012,10,05,13,40,17.80
2012,10,05,13,41,17.90
2012,10,05,13,42,17.80
2012,10,05,13,43,17.80
2012,10,05,13,44,17.90
2012,10,05,13,45,17.90
2012,10,05,13,46,18.00
2012,10,05,13,47,18.10
2012,10,05,13,48,18.20
2012,10,05,13,49,18.30
2012,10,05,13,50,18.30
2012,10,05,13,51,18.50
2012,10,05,13,52,18.60
2012,10,05,13,53,18.50
2012,10,05,13,54,18.50
2012,10,05,13,55,18.40
2012,10,05,13,56,18.40
2012,10,05,13,57,18.40
2012,10,05,13,58,18.30
2012,10,05,13,59,18.30
2012,10,05,14,00,18.30
2012,10,05,14,01,18.30
2012,10,05,14,02,18.30
2012,10,05,14,03,18.30
2012,10,05,14,04,18.30
2012,10,05,14,05,18.30
2012,10,05,14,06,18.30
2012,10,05,14,07,18.30
2012,10,05,14,08,18.30
2012,10,05,14,09,18.40
2012,10,05,14,10,18.50
2012,10,05,14,11,18.60
2012,10,05,14,12,18.80
2012,10,05,14,13,18.90
2012,10,05,14,14,19.00
2012,10,05,14,15,19.10
2012,10,05,14,16,19.10
2012,10,05,14,17,19.10
2012,10,05,14,18,19.10
2012,10,05,14,19,19.10
2012,10,05,14,20,19.10
2012,10,05,14,21,19.10
2012,10,05,14,22,19.20
2012,10,05,14,23,19.20
2012,10,05,14,24,19.20
2012,10,05,14,25,19.30
2012,10,05,14,26,19.30
2012,10,05,14,27,19.30
2012,10,05,14,28,19.30
2012,10,05,14,29,19.20
2012,10,05,14,30,19.20
2012,10,05,14,31,19.20
2012,10,05,14,32,19.20
2012,10,05,14,33,19.20
2012,10,05,14,34,19.20
2012,10,05,14,35,19.20
2012,10,05,14,36,19.30
2012,10,05,14,37,19.20
2012,10,05,14,38,19.20
2012,10,05,14,39,19.20
2012,10,05,14,40,19.20
2012,10,05,14,41,19.20
2012,10,05,14,42,19.20
2012,10,05,14,43,19.20
2012,10,05,14,44,19.20
2012,10,05,14,45,19.20
2012,10,05,14,46,19.20
2012,10,05,14,47,19.10
2012,10,05,14,48,19.10
2012,10,05,14,49,19.10
2012,10,05,14,50,19.00
2012,10,05,14,51,18.90
2012,10,05,14,52,18.90
2012,10,05,14,53,18.90
2012,10,05,14,54,18.90
2012,10,05,14,55,18.90
2012,10,05,14,56,18.90
2012,10,05,14,57,19.00
2012,10,05,14,58,19.00
2012,10,05,14,59,19.00
2012,10,05,15,00,19.00
2012,10,05,15,01,19.10
2012,10,05,15,02,19.10
2012,10,05,15,03,19.20
2012,10,05,15,04,19.20
2012,10,05,15,05,19.30
2012,10,05,15,06,19.30
2012,10,05,15,07,19.40
2012,10,05,15,08,19.50
2012,10,05,15,09,19.50
2012,10,05,15,10,19.50
2012,10,05,15,11,19.50
2012,10,05,15,12,19.40
2012,10,05,15,13,19.30
2012,10,05,15,14,19.30
2012,10,05,15,15,19.30
2012,10,05,15,16,19.30
2012,10,05,15,17,19.30
2012,10,05,15,18,19.30
2012,10,05,15,19,19.30
2012,10,05,15,20,19.20
2012,10,05,15,21,19.20
2012,10,05,15,22,19.30
2012,10,05,15,23,19.30
2012,10,05,15,24,19.40
2012,10,05,15,25,19.40
2012,10,05,15,26,19.40
2012,10,05,15,27,19.40
2012,10,05,15,28,19.50
2012,10,05,15,29,19.60
2012,10,05,15,30,19.70
2012,10,05,15,31,19.70
2012,10,05,15,32,19.70
2012,10,05,15,33,19.60
2012,10,05,15,34,19.50
2012,10,05,15,35,19.50
2012,10,05,15,36,19.60
2012,10,05,15,37,19.60
2012,10,05,15,38,19.60
2012,10,05,15,39,19.50
2012,10,05,15,40,19.40
2012,10,05,15,41,19.30
2012,10,05,15,42,19.30
2012,10,05,15,43,19.20
2012,10,05,15,44,19.20
2012,10,05,15,45,19.20
2012,10,05,15,46,19.20
2012,10,05,15,47,19.30
2012,10,05,15,48,19.30
2012,10,05,15,49,19.30
2012,10,05,15,50,19.30
2012,10,05,15,51,19.40
2012,10,05,15,52,19.40
2012,10,05,15,53,19.50
2012,10,05,15,54,19.50
2012,10,05,15,55,19.40
2012,10,05,15,56,19.40
2012,10,05,15,57,19.40
2012,10,05,15,58,19.40
2012,10,05,15,59,19.40
2012,10,05,16,00,19.40
2012,10,05,16,01,19.40
2012,10,05,16,02,19.50
2012,10,05,16,03,19.40
2012,10,05,16,04,19.40
2012,10,05,16,05,19.40
2012,10,05,16,06,19.40
2012,10,05,16,07,19.40
2012,10,05,16,08,19.30
2012,10,05,16,09,19.20
2012,10,05,16,10,19.20
2012,10,05,16,11,19.20
2012,10,05,16,12,19.20
2012,10,05,16,13,19.20
2012,10,05,16,14,19.20
2012,10,05,16,15,19.20
2012,10,05,16,16,19.20
2012,10,05,16,17,19.10
2012,10,05,16,18,19.10
2012,10,05,16,19,19.20
2012,10,05,16,20,19.20
2012,10,05,16,21,19.20
2012,10,05,16,22,19.20
2012,10,05,16,23,19.30
2012,10,05,16,24,19.30
2012,10,05,16,25,19.30
2012,10,05,16,26,19.30
2012,10,05,16,27,19.30
2012,10,05,16,28,19.30
2012,10,05,16,29,19.20
2012,10,05,16,30,19.20
2012,10,05,16,31,19.20
2012,10,05,16,32,19.30
2012,10,05,16,33,19.30
2012,10,05,16,34,19.20
2012,10,05,16,35,19.20
2012,10,05,16,36,19.20
2012,10,05,16,37,19.20
2012,10,05,16,38,19.10
2012,10,05,16,39,19.10
2012,10,05,16,40,19.10
2012,10,05,16,41,19.10
2012,10,05,16,42,19.20
2012,10,05,16,43,19.20
2012,10,05,16,44,19.20
2012,10,05,16,45,19.20
2012,10,05,16,46,19.20
2012,10,05,16,47,19.20
2012,10,05,16,48,19.30
2012,10,05,16,49,19.30
2012,10,05,16,50,19.30
2012,10,05,16,51,19.30
2012,10,05,16,52,19.30
2012,10,05,16,53,19.30
2012,10,05,16,54,19.30
2012,10,05,16,55,19.30
2012,10,05,16,56,19.40
2012,10,05,16,57,19.40
2012,10,05,16,58,19.40
2012,10,05,16,59,19.50
2012,10,05,17,00,19.60
2012,10,05,17,01,19.60
2012,10,05,17,02,19.70
2012,10,05,17,03,19.80
2012,10,05,17,04,19.80
2012,10,05,17,05,19.80
2012,10,05,17,06,19.80
2012,10,05,17,07,19.90
2012,10,05,17,08,19.90
2012,10,05,17,09,19.90
2012,10,05,17,10,20.00
2012,10,05,17,11,20.00
2012,10,05,17,12,20.10
2012,10,05,17,13,20.10
2012,10,05,17,14,20.10
2012,10,05,17,15,20.10
2012,10,05,17,16,20.10
2012,10,05,17,17,20.20
2012,10,05,17,18,20.20
2012,10,05,17,19,20.20
2012,10,05,17,20,20.20
2012,10,05,17,21,20.20
2012,10,05,17,22,20.30
2012,10,05,17,23,20.40
2012,10,05,17,24,20.40
2012,10,05,17,25,20.50
2012,10,05,17,26,20.50
2012,10,05,17,27,20.50
2012,10,05,17,28,20.40
2012,10,05,17,29,20.40
2012,10,05,17,30,20.40
2012,10,05,17,31,20.30
2012,10,05,17,32,20.30
2012,10,05,17,33,20.30
2012,10,05,17,34,20.30
2012,10,05,17,35,20.30
2012,10,05,17,36,20.20
2012,10,05,17,37,20.20
2012,10,05,17,38,20.10
2012,10,05,17,39,20.10
2012,10,05,17,40,20.00
2012,10,05,17,41,20.00
2012,10,05,17,42,19.90